AV751 Weather Reports


time (UTC)temp
C
wind
direction
speed
KPH
gust
KPH
rain 1hr
cm
rain 24hr
cm
rain mn
cm
humidity
%
barometer
mb
20260502130714 20 145 1.6 9.7 0.00 0.00 0.00 45 995.1
20260502123504 20 146 1.6 9.7 0.00 0.00 0.00 49 995.5
20260502123004 19 142 3.2 9.7 0.00 0.00 0.00 47 995.5
20260502122504 20 141 6.4 9.7 0.00 0.00 0.00 46 995.6
20260502122004 20 139 0.0 9.7 0.00 0.00 0.00 46 995.7
20260502121504 19 139 3.2 9.7 0.00 0.00 0.00 48 995.9
20260502121217 19 137 3.2 9.7 0.00 0.00 0.00 48 995.9
20260502120504 19 140 3.2 9.7 0.00 0.00 0.00 47 995.8
20260502120218 19 137 6.4 9.7 0.00 0.00 0.00 49 995.9
20260502115504 18 144 6.4 9.7 0.00 0.00 0.00 49 996.0
20260502115004 19 204 3.2 8.0 0.00 0.00 0.00 50 996.2
20260502114504 19 164 1.6 8.0 0.00 0.00 0.00 50 996.4
20260502114215 19 152 3.2 9.7 0.00 0.00 0.00 50 996.5
20260502113504 19 137 3.2 12.9 0.00 0.00 0.00 50 996.6
20260502113004 19 163 4.8 6.4 0.00 0.00 0.00 51 996.5
20260502112504 18 170 3.2 6.4 0.00 0.00 0.00 51 996.8
20260502112004 18 158 3.2 8.0 0.00 0.00 0.00 52 996.8
20260502111504 18 140 3.2 8.0 0.00 0.00 0.00 52 997.2
20260502111004 18 144 4.8 6.4 0.00 0.00 0.00 52 997.0
20260502110716 18 141 1.6 6.4 0.00 0.00 0.00 52 996.9
20260502110004 18 171 3.2 6.4 0.00 0.00 0.00 54 997.0
20260502105504 18 186 3.2 6.4 0.00 0.00 0.00 54 997.0
20260502105004 18 101 1.6 4.8 0.00 0.00 0.00 54 996.8
20260502104718 17 114 3.2 8.0 0.00 0.00 0.00 55 997.0
20260502104215 17 120 3.2 8.0 0.00 0.00 0.00 55 997.0
20260502103504 17 202 3.2 6.4 0.00 0.00 0.00 58 997.0
20260502103004 17 202 3.2 6.4 0.00 0.00 0.00 63 997.0
20260502102715 16 197 3.2 6.4 0.00 0.00 0.00 63 997.0
20260502102004 16 251 3.2 6.4 0.00 0.00 0.00 63 997.1
20260502101504 16 111 3.2 8.0 0.00 0.00 0.00 64 997.2
20260502101004 16 123 3.2 8.0 0.00 0.00 0.00 63 997.2
20260502100504 16 193 3.2 6.4 0.00 0.00 0.00 64 997.4
20260502091504 14 138 4.8 6.4 0.00 0.00 0.00 69 998.1
20260502091004 14 137 3.2 8.0 0.00 0.00 0.00 67 997.9
20260502090504 15 147 4.8 8.0 0.00 0.00 0.00 67 998.1
20260502071504 13 167 0.0 4.8 0.00 0.00 0.00 75 998.5
20260502071004 13 145 1.6 3.2 0.00 0.00 0.00 76 998.5
20260502070504 12 146 1.6 3.2 0.00 0.00 0.00 78 998.2
20260502070004 12 137 3.2 4.8 0.00 0.00 0.00 80 998.5
20260502065504 12 134 1.6 4.8 0.00 0.00 0.00 82 998.5
20260502065004 12 165 3.2 4.8 0.00 0.00 0.00 88 998.6
20260502064504 11 162 3.2 4.8 0.00 0.00 0.00 91 998.6
20260502064218 11 156 0.0 4.8 0.00 0.00 0.00 92 998.8
20260502063504 11 156 1.6 4.8 0.00 0.00 0.00 94 998.6
20260502063004 11 192 1.6 3.2 0.00 0.00 0.00 95 998.6
20260502062504 10 207 0.0 3.2 0.00 0.00 0.00 95 998.6
20260502062004 10 188 0.0 3.2 0.00 0.00 0.00 95 998.5
20260502061504 10 180 0.0 3.2 0.00 0.00 0.00 95 998.6
20260502061216 10 189 0.0 3.2 0.00 0.00 0.00 95 998.6
20260502060504 9 180 0.0 3.2 0.00 0.00 0.00 95 998.4
20260502060004 9 177 1.6 3.2 0.00 0.00 0.00 95 998.6
20260502055504 9 180 0.0 3.2 0.00 0.00 0.00 95 998.5
20260502055004 9 180 1.6 3.2 0.00 0.00 0.00 95 998.6
20260502054716 9 180 0.0 3.2 0.00 0.00 0.00 95 998.5
20260502054004 9 180 1.6 3.2 0.00 0.00 0.00 94 998.5
20260502053504 9 180 0.0 1.6 0.00 0.00 0.00 94 998.6
20260502053004 8 198 0.0 3.2 0.00 0.00 0.00 94 998.6
20260502052504 8 194 0.0 3.2 0.00 0.00 0.00 94 998.3
20260502052004 8 180 0.0 1.6 0.00 0.00 0.00 94 998.4
20260502051504 8 180 0.0 1.6 0.00 0.00 0.00 94 998.2
20260502051004 8 180 0.0 1.6 0.00 0.00 0.00 94 998.3
20260502050504 8 180 0.0 1.6 0.00 0.00 0.00 94 998.3
20260502050004 8 180 0.0 1.6 0.00 0.00 0.00 93 998.4
20260502045715 8 180 0.0 1.6 0.00 0.00 0.00 93 998.5
20260502045004 8 180 0.0 1.6 0.00 0.00 0.00 93 998.6
20260502044504 8 180 0.0 1.6 0.00 0.00 0.00 93 998.2
20260502044004 8 180 0.0 1.6 0.00 0.00 0.00 93 998.2
20260502043504 8 180 0.0 1.6 0.00 0.00 0.00 93 998.2
20260502043215 8 195 0.0 1.6 0.00 0.00 0.00 93 998.2
20260502042504 8 225 0.0 1.6 0.00 0.00 0.00 93 998.3
20260502042004 8 166 0.0 3.2 0.00 0.00 0.00 93 998.3
20260502041504 9 165 0.0 3.2 0.00 0.00 0.00 93 998.3
20260502041004 9 179 0.0 3.2 0.00 0.00 0.00 93 998.4
20260502040504 9 174 0.0 3.2 0.00 0.00 0.00 93 998.4
20260502040005 9 165 0.0 3.2 0.00 0.00 0.00 93 998.3
20260502035504 9 163 0.0 3.2 0.00 0.00 0.00 93 998.4
20260502035004 9 158 0.0 3.2 0.00 0.00 0.00 92 998.3
20260502034504 9 144 0.0 3.2 0.00 0.00 0.00 92 998.3
20260502034004 9 143 0.0 3.2 0.00 0.00 0.00 92 998.3
20260502033718 9 149 1.6 3.2 0.00 0.00 0.00 92 998.3
20260502033004 9 135 0.0 3.2 0.00 0.00 0.00 92 998.4
20260502032504 9 135 0.0 3.2 0.00 0.00 0.00 91 998.4
20260502032004 9 0 0.0 0.0 0.00 0.00 0.00 91 998.3
20260502031504 9 0 0.0 0.0 0.00 0.00 0.00 91 998.4
20260502031004 9 0 0.0 0.0 0.00 0.00 0.00 91 998.3
20260502030504 9 0 0.0 0.0 0.00 0.00 0.00 91 998.4
20260502030004 10 0 0.0 0.0 0.00 0.00 0.00 91 998.4
20260502025504 10 0 0.0 0.0 0.00 0.00 0.00 91 998.4
20260502025004 10 90 0.0 1.6 0.00 0.00 0.00 91 998.6
20260502024504 10 90 0.0 1.6 0.00 0.00 0.00 92 998.4
20260502024215 10 90 0.0 1.6 0.00 0.00 0.00 92 998.4
20260502023504 10 0 0.0 0.0 0.00 0.00 0.00 92 998.5
20260502023004 10 140 0.0 3.2 0.00 0.00 0.00 92 998.5
20260502022504 10 140 1.6 3.2 0.00 0.00 0.00 92 998.4
20260502022004 11 0 0.0 0.0 0.00 0.00 0.00 92 998.5
20260502021504 11 135 0.0 1.6 0.00 0.00 0.00 92 998.6
20260502021004 11 135 0.0 1.6 0.00 0.00 0.00 92 998.7
20260502020504 11 135 0.0 1.6 0.00 0.00 0.00 92 998.4
20260502020004 11 135 1.6 1.6 0.00 0.00 0.00 92 998.5
20260502015717 11 0 0.0 0.0 0.00 0.00 0.00 92 998.6
20260502015004 11 163 0.0 1.6 0.00 0.00 0.00 92 998.7
20260502014504 11 182 0.0 1.6 0.00 0.00 0.00 92 998.5
20260502014004 12 158 0.0 3.2 0.00 0.00 0.00 92 998.6
20260502013504 12 175 0.0 3.2 0.00 0.00 0.00 92 998.6
20260502013004 12 182 0.0 3.2 0.00 0.00 0.00 92 998.8
20260502012504 12 152 0.0 3.2 0.00 0.00 0.00 93 998.9
20260502012004 12 221 0.0 3.2 0.00 0.00 0.00 93 999.1
20260502011504 12 217 0.0 3.2 0.00 0.00 0.00 90 999.1
20260502011004 12 168 0.0 3.2 0.00 0.00 0.00 90 998.9
20260502010717 12 168 0.0 3.2 0.00 0.00 0.00 90 999.0
20260502010215 12 172 0.0 1.6 0.00 0.00 0.00 90 999.0
20260502005504 12 180 0.0 1.6 0.00 0.00 0.00 90 999.1
20260502005004 12 143 0.0 3.2 0.00 0.00 0.00 90 999.2
20260502004714 12 142 0.0 3.2 0.00 0.00 0.00 90 999.3
20260502004005 12 135 1.6 1.6 0.00 0.00 0.00 90 999.1
20260502003504 12 135 0.0 1.6 0.00 0.00 0.00 90 999.0
20260502003004 12 141 0.0 1.6 0.00 0.00 0.00 90 998.8
20260502002504 12 259 0.0 1.6 0.00 0.00 0.00 90 999.1
20260502002004 12 250 0.0 3.2 0.00 0.00 0.00 90 999.0
20260502001504 12 260 0.0 3.2 0.00 0.00 0.00 90 999.2
20260502001004 12 242 0.0 1.6 0.00 0.00 0.00 90 999.2
20260502000504 12 180 0.0 1.6 0.00 0.00 0.00 90 999.2
20260502000004 12 180 0.0 1.6 0.00 0.00 0.00 90 999.3
20260501235504 12 172 0.0 3.2 0.00 0.00 0.00 90 999.1
20260501235004 12 182 0.0 3.2 0.00 0.00 0.00 90 999.0
20260501234714 12 175 0.0 3.2 0.00 0.00 0.00 89 999.3
20260501234004 12 148 1.6 3.2 0.00 0.00 0.00 89 999.2
20260501233504 12 143 1.6 3.2 0.00 0.00 0.00 89 999.2
20260501233004 12 168 0.0 3.2 0.00 0.00 0.00 89 999.3
20260501232504 12 147 0.0 3.2 0.00 0.00 0.00 91 999.6
20260501232214 12 145 1.6 3.2 0.00 0.00 0.00 91 999.4
20260501231504 12 148 0.0 3.2 0.00 0.00 0.00 91 999.4
20260501231004 12 135 0.0 3.2 0.00 0.00 0.00 91 999.1
20260501230504 12 135 1.6 3.2 0.00 0.00 0.00 91 999.2
20260501230006 12 135 0.0 1.6 0.00 0.00 0.00 91 999.0
20260501225504 12 0 0.0 0.0 0.00 0.00 0.00 91 999.2
20260501225004 12 200 0.0 1.6 0.00 0.00 0.00 91 999.1
20260501224504 12 183 0.0 1.6 0.00 0.00 0.00 90 999.2
20260501224213 12 135 0.0 1.6 0.00 0.00 0.00 90 999.2
20260501223504 12 137 0.0 3.2 0.00 0.00 0.00 90 999.4
20260501223004 12 135 0.0 3.2 0.00 0.00 0.00 90 999.2
20260501222717 12 135 1.6 3.2 0.00 0.00 0.00 90 999.3
20260501222004 12 135 0.0 3.2 0.00 0.00 0.00 90 999.2
20260501221504 12 0 0.0 0.0 0.00 0.00 0.00 85 999.1
20260501221004 12 135 0.0 3.2 0.00 0.00 0.00 85 999.0
20260501220504 12 142 0.0 3.2 0.00 0.00 0.00 85 999.2
20260501215504 12 171 0.0 1.6 0.00 0.00 0.00 84 999.0
20260501215004 12 163 0.0 1.6 0.00 0.00 0.00 83 999.1
20260501214504 12 174 0.0 1.6 0.00 0.00 0.00 83 998.8
20260501214004 12 0 0.0 0.0 0.00 0.00 0.00 83 999.0
20260501213854 12 0 0.0 0.0 0.00 0.00 0.00 83 998.9
20260501213717 12 0 0.0 0.0 0.00 0.00 0.00 83 999.0
20260501212504 13 163 0.0 3.2 0.00 0.00 0.00 82 999.0
20260501212004 13 135 0.0 3.2 0.00 0.00 0.00 82 999.1
20260501211714 13 135 0.0 3.2 0.00 0.00 0.00 82 999.1
20260501211004 13 183 0.0 1.6 0.00 0.00 0.00 81 998.7
20260501210714 13 182 0.0 3.2 0.00 0.00 0.00 81 999.1
20260501210004 13 157 0.0 3.2 0.00 0.00 0.00 81 999.0
20260501205504 13 140 0.0 3.2 0.00 0.00 0.00 81 999.0
20260501205004 13 155 1.6 3.2 0.00 0.00 0.00 81 998.9
20260501204716 14 176 0.0 3.2 0.00 0.00 0.00 81 998.9
20260501204004 14 163 1.6 4.8 0.00 0.00 0.00 80 998.8
20260501203504 14 168 1.6 4.8 0.00 0.00 0.00 80 998.8
20260501203004 14 159 1.6 4.8 0.00 0.00 0.00 79 998.8
20260501202504 14 135 0.0 6.4 0.00 0.00 0.00 78 998.8
20260501202216 15 136 3.2 6.4 0.00 0.00 0.00 78 998.9
20260501201504 15 145 0.0 9.7 0.00 0.00 0.00 76 998.9
20260501201004 15 129 3.2 9.7 0.00 0.00 0.00 75 998.8
20260501200504 15 133 3.2 9.7 0.00 0.00 0.00 74 998.8
20260501200004 15 156 1.6 3.2 0.00 0.00 0.00 73 998.8
20260501195504 15 163 1.6 3.2 0.00 0.00 0.00 73 998.8
20260501195004 15 173 1.6 3.2 0.00 0.00 0.00 72 998.6
20260501194504 16 178 0.0 3.2 0.00 0.00 0.00 72 998.7
20260501194004 16 157 3.2 4.8 0.00 0.00 0.00 72 998.6
20260501193504 16 144 3.2 4.8 0.00 0.00 0.00 71 998.7
20260501193004 16 162 1.6 4.8 0.00 0.00 0.00 71 998.6
20260501192504 16 166 1.6 4.8 0.00 0.00 0.00 70 998.7
20260501192004 16 162 0.0 4.8 0.00 0.00 0.00 70 998.5
20260501191504 16 177 0.0 4.8 0.00 0.00 0.00 70 998.5
20260501191004 17 159 1.6 4.8 0.00 0.00 0.00 69 998.5
20260501190504 17 161 3.2 4.8 0.00 0.00 0.00 68 998.3
20260501190004 17 153 0.0 3.2 0.00 0.00 0.00 67 998.3
20260501185504 17 143 1.6 3.2 0.00 0.00 0.00 66 998.2
20260501185004 17 152 1.6 6.4 0.00 0.00 0.00 65 998.2
20260501184504 17 158 1.6 6.4 0.00 0.00 0.00 61 998.2
20260501184004 17 158 3.2 6.4 0.00 0.00 0.00 60 998.3
20260501183504 17 202 3.2 9.7 0.00 0.00 0.00 60 998.3
20260501183004 17 202 3.2 9.7 0.00 0.00 0.00 58 998.1
20260501182504 17 172 4.8 9.7 0.00 0.00 0.00 57 997.9
20260501182004 18 146 3.2 9.7 0.00 0.00 0.00 57 997.9
20260501181715 18 146 1.6 9.7 0.00 0.00 0.00 56 997.8
20260501181004 18 170 1.6 6.4 0.00 0.00 0.00 55 997.7
20260501180504 18 178 3.2 6.4 0.00 0.00 0.00 54 997.7
20260501180005 18 188 1.6 12.9 0.00 0.00 0.00 54 997.6
20260501175504 19 206 3.2 12.9 0.00 0.00 0.00 54 997.6
20260501175004 20 176 1.6 11.3 0.00 0.00 0.00 54 997.6
20260501174504 20 166 3.2 11.3 0.00 0.00 0.00 54 997.3
20260501174216 20 178 3.2 11.3 0.00 0.00 0.00 54 997.3
20260501173504 21 152 3.2 6.4 0.00 0.00 0.00 54 997.1
20260501173004 21 176 3.2 9.7 0.00 0.00 0.00 53 996.9
20260501172715 22 172 1.6 9.7 0.00 0.00 0.00 51 996.7
20260501172004 23 187 3.2 9.7 0.00 0.00 0.00 48 996.8
20260501171504 23 160 3.2 8.0 0.00 0.00 0.00 45 996.7
20260501171004 23 130 3.2 8.0 0.00 0.00 0.00 43 996.6
20260501170717 23 121 6.4 8.0 0.00 0.00 0.00 42 996.7
20260501170005 23 141 1.6 9.7 0.00 0.00 0.00 42 996.7
20260501165504 23 139 4.8 9.7 0.00 0.00 0.00 41 996.5
20260501165004 23 140 3.2 6.4 0.00 0.00 0.00 41 996.7
20260501164504 23 165 3.2 6.4 0.00 0.00 0.00 41 996.5
20260501164004 23 181 3.2 6.4 0.00 0.00 0.00 41 996.6
20260501163715 23 161 3.2 12.9 0.00 0.00 0.00 41 996.6
20260501163218 24 153 3.2 12.9 0.00 0.00 0.00 40 996.4
20260501162504 24 138 6.4 12.9 0.00 0.00 0.00 40 996.5
20260501162004 24 142 6.4 12.9 0.00 0.00 0.00 39 996.5
20260501161504 24 129 4.8 11.3 0.00 0.00 0.00 38 996.4
20260501161004 24 126 6.4 12.9 0.00 0.00 0.00 37 996.5
20260501160504 25 137 6.4 12.9 0.00 0.00 0.00 35 996.4
20260501160004 25 142 11.3 12.9 0.00 0.00 0.00 35 996.6
20260501155714 25 146 6.4 11.3 0.00 0.00 0.00 35 996.6
20260501155004 25 158 3.2 8.0 0.00 0.00 0.00 40 996.6
20260501154504 24 154 3.2 11.3 0.00 0.00 0.00 39 996.8
20260501154004 25 151 4.8 11.3 0.00 0.00 0.00 40 996.9
20260501153504 25 148 6.4 11.3 0.00 0.00 0.00 40 996.7
20260501153004 25 139 4.8 8.0 0.00 0.00 0.00 40 996.9
20260501152716 25 144 3.2 8.0 0.00 0.00 0.00 39 997.2
20260501152004 25 142 0.0 9.7 0.00 0.00 0.00 37 996.9
20260501151504 25 153 6.4 11.3 0.00 0.00 0.00 37 996.9
20260501151004 25 152 1.6 11.3 0.00 0.00 0.00 38 997.1
20260501150504 25 142 3.2 9.7 0.00 0.00 0.00 39 997.2